Location: ???? ??
(36.0534°N, 43.5630°E)
Time: 18:44:36
(UTC+00:00)

Cosmos 1943 Rocket - Pass Details

Date: 18 September 2019
Orbit: 811 x 845 km, 71.0° (Epoch: 20 October)

Event Time Altitude Azimuth Distance (km) Brightness Sun altitude
Exits shadow 23:44:59 31° 28° (NNE) 1,406 3.7 -36.2°
Drops below altitude 10° 23:47:46 10° 25° (NNE) 2,417 5.2 -35.7°
Sets 23:50:12 0° 24° (NNE) 3,358 6.0 -35.3°
